Location: Mount Cross
(36.6390°N, 79.4878°W)
Time: 01:20:54
(UTC+00:00)

SR - Pass Details

Date: 30 March 2023
Orbit: 580 x 867 km, 66.7° (Epoch: 08 June)

Event Time Altitude Azimuth Distance (km) Brightness Sun altitude
Rises 15:51:34 0° 325° (NW) 2,837 ? 51.1°
Reaches altitude 10° 15:53:49 10° 319° (NW) 1,955 ? 51.4°
Maximum altitude 15:57:59 45° 247° (WSW) 858 ? 51.9°
Drops below altitude 10° 16:02:26 10° 175° (S) 2,076 ? 52.4°
Sets 16:04:54 0° 169° (SSE) 3,034 ? 52.7°
